Wind_Speed
29 30 31 30 30 29 30 30 30 31 30 28 28 28 28 27 27 28 26 26 29 29 26 25 23 20 18 19 19 17 15 13 11 12 12 12 11 11 12 12 13 14 16 17 17 17 17 18 18 18 18 18 18 19 20 20 21 22 22 23 24 26 27 27 27 28 29 30 30 29 29 28 28 29 30 30 30 30 31 31 31 31 32 32 34 34
30 31 31 31 31 32 32 31 31 31 30 30 30 29 27 27 28 28 27 28 30 29 26 26 25 21 19 19 20 19 16 13 13 13 14 13 13 13 14 14 15 16 17 18 19 19 18 18 19 19 19 19 19 20 20 21 21 22 23 23 25 26 28 28 27 27 28 29 30 30 30 30 29 29 30 31 31 31 32 32 32 33 33 33 34 34
31 32 32 33 33 33 32 32 32 33 32 31 30 28 28 28 29 30 29 30 31 29 27 28 27 22 20 21 21 20 17 15 15 15 14 15 15 15 16 17 17 17 18 19 20 20 19 19 19 20 20 20 20 20 21 21 22 23 23 24 25 26 28 28 27 26 26 28 29 30 30 30 30 30 30 31 31 32 32 33 34 34 34 35 35 35
31 32 33 34 33 33 34 34 35 35 33 31 30 30 29 29 30 32 31 31 30 30 30 29 28 23 21 22 22 22 20 17 17 16 15 16 16 17 18 18 18 18 19 19 20 21 20 19 20 20 20 20 21 21 21 22 23 23 24 24 26 27 27 27 26 25 26 27 28 29 29 30 30 31 31 32 32 33 33 34 35 35 35 35 36 36
32 33 34 34 35 35 36 37 37 36 33 32 31 31 30 30 32 33 32 31 31 32 31 30 30 25 22 24 24 23 21 19 19 18 17 17 18 19 19 18 19 19 19 20 21 21 20 20 21 21 21 21 21 22 23 23 23 23 24 25 26 27 28 28 26 26 26 26 27 28 28 29 30 30 31 32 33 33 34 35 36 35 36 36 36 36
35 35 34 35 35 36 38 37 37 36 35 34 33 32 32 32 34 33 33 34 33 33 32 30 32 28 24 26 25 23 22 21 21 20 18 19 21 21 19 19 19 19 19 21 22 21 20 20 22 22 22 22 22 23 24 25 25 24 24 25 26 27 28 29 28 26 26 27 27 28 28 28 29 29 31 32 33 33 33 34 35 35 36 36 36 36
36 35 34 34 35 37 38 38 38 37 36 36 35 34 34 34 35 34 35 36 34 33 32 31 34 32 26 25 25 24 24 23 23 21 19 21 23 23 20 19 20 21 21 22 23 22 21 21 22 23 23 24 24 24 25 25 26 25 24 25 26 27 28 29 29 28 27 28 28 28 29 29 29 29 30 31 32 33 33 34 34 35 36 36 36 36
36 36 35 34 35 37 39 39 39 39 38 38 37 36 36 35 37 36 36 36 35 34 33 32 35 36 30 24 23 26 27 26 24 21 21 22 25 25 22 20 22 22 23 24 24 23 23 22 23 24 25 25 26 26 26 26 26 26 26 26 26 27 28 29 29 29 28 29 29 29 29 30 30 30 31 31 32 33 33 34 34 35 36 36 36 36
37 37 37 36 37 38 39 40 41 40 41 40 39 39 37 37 38 37 37 37 36 36 35 34 34 38 36 25 22 27 29 27 23 22 23 24 25 26 25 24 24 24 25 25 24 24 24 25 25 26 26 27 27 27 27 27 27 28 28 28 28 28 28 29 30 30 29 29 29 29 29 30 31 31 32 32 32 33 33 34 35 36 37 37 36 36
39 39 39 38 38 39 39 40 41 41 42 42 42 41 40 39 39 39 38 38 38 38 36 36 35 38 39 30 24 27 29 27 24 23 25 26 26 27 27 27 27 27 27 26 25 25 26 27 27 27 28 29 29 28 28 28 29 29 29 30 29 29 29 29 30 31 31 31 31 31 30 30 31 32 33 33 32 32 34 35 36 37 37 37 37 37
41 41 40 40 39 40 40 41 41 41 43 43 43 43 42 41 41 40 40 39 40 40 37 37 36 37 40 34 26 26 29 28 26 26 27 27 28 29 29 29 29 28 28 27 27 28 29 29 29 29 30 31 31 30 30 30 30 30 31 31 31 30 30 30 31 32 33 33 33 33 32 32 32 33 33 33 33 32 33 36 37 37 37 37 37 37
44 43 42 41 41 41 41 42 42 42 43 43 44 45 44 44 43 43 42 42 42 41 38 39 38 38 40 36 28 26 28 28 27 28 28 29 30 31 31 31 30 30 30 29 30 30 31 31 30 31 32 33 33 32 32 32 32 32 32 32 32 31 31 32 32 33 34 35 36 36 35 34 34 35 35 34 34 34 34 36 37 36 36 37 37 37
45 45 43 43 42 42 43 43 44 44 45 44 45 45 45 45 45 45 44 44 43 42 41 42 42 40 39 37 34 32 29 27 28 28 29 30 31 32 32 32 31 32 32 32 32 33 34 34 33 33 34 36 35 34 34 34 34 34 34 34 33 33 32 32 33 34 35 36 37 38 38 37 37 37 38 37 36 37 37 37 38 38 37 37 37 37
48 47 47 46 44 44 45 45 45 45 45 45 45 44 45 45 46 47 46 46 46 44 44 45 45 43 38 36 38 37 31 28 28 28 30 32 33 34 33 33 33 34 35 35 35 35 36 37 37 36 36 38 38 37 37 37 37 37 36 36 35 35 35 34 34 34 35 37 38 39 39 39 39 40 40 40 39 39 40 40 40 40 39 39 39 39
50 50 49 48 46 45 45 45 45 45 46 46 45 46 46 46 47 48 48 49 48 47 46 47 46 44 39 37 39 40 35 31 30 30 32 34 35 36 35 34 35 36 37 37 37 37 39 40 40 39 39 40 41 40 40 40 40 40 40 39 38 38 37 37 37 36 36 37 39 40 41 41 41 41 42 43 42 42 42 42 42 42 42 41 41 41
51 51 50 49 47 46 46 46 46 47 48 47 48 49 49 48 48 49 50 50 50 50 50 49 47 44 42 41 41 42 38 34 33 34 35 36 37 37 36 37 38 39 39 39 39 41 42 42 41 41 41 42 43 44 43 43 43 43 43 42 42 41 40 39 39 39 39 39 39 40 41 42 43 43 44 45 45 46 46 45 44 45 45 44 43 43
52 52 51 50 48 46 46 46 47 49 49 48 49 50 49 48 48 49 50 50 50 53 52 50 48 45 44 45 44 43 40 38 38 37 37 39 39 38 39 40 40 41 42 42 43 44 44 43 42 43 43 45 46 47 46 46 47 47 46 45 45 44 43 42 42 41 41 41 41 41 42 43 44 44 45 46 47 48 49 47 46 46 47 46 46 46
52 52 53 51 50 48 46 46 47 49 49 49 50 50 49 50 51 51 52 52 53 55 54 51 50 47 45 46 45 42 41 41 42 41 40 42 41 41 41 41 42 42 43 44 44 45 45 45 44 45 46 48 48 48 49 50 51 50 48 48 48 47 46 46 45 44 43 43 43 44 44 44 44 45 46 47 47 49 50 50 49 48 48 48 48 48
52 53 54 54 53 51 48 47 48 49 51 52 51 50 50 52 54 54 54 54 54 56 55 52 51 50 47 45 46 44 43 44 44 43 45 46 45 43 42 42 43 43 44 45 46 46 46 47 48 48 49 49 49 50 51 53 54 53 51 51 50 50 50 49 49 48 46 45 45 46 46 45 45 46 47 47 48 49 50 51 51 49 48 48 49 49
51 52 54 56 55 53 51 50 51 51 52 52 52 51 51 52 54 55 55 55 54 56 56 53 53 52 45 43 46 47 46 47 47 47 49 50 48 47 46 46 46 47 46 47 47 48 48 49 50 50 51 51 51 52 53 55 56 55 54 53 53 53 53 53 53 51 49 47 47 48 48 48 47 47 47 48 49 50 50 51 51 50 49 49 49 49
50 53 55 57 57 57 56 54 53 51 51 51 51 52 52 52 53 54 55 55 54 56 57 56 57 52 43 42 47 48 47 48 48 49 51 53 52 50 49 49 50 50 49 49 49 50 51 52 52 53 52 53 54 54 55 56 57 57 57 57 57 56 57 57 56 55 52 50 49 50 50 50 50 49 47 47 49 50 50 51 51 51 51 50 50 50
50 53 55 57 58 58 57 54 52 51 51 51 52 53 53 52 53 55 56 57 56 57 57 58 60 53 43 44 47 48 49 49 50 51 52 54 56 54 52 52 52 53 53 53 53 53 54 55 55 55 56 56 56 56 57 57 56 57 59 61 61 61 60 60 59 58 55 53 52 51 51 51 52 51 48 47 49 50 50 50 51 51 51 51 51 50
50 52 54 56 58 58 57 55 54 53 53 53 54 55 55 56 57 58 59 59 58 60 59 60 63 55 43 43 47 47 50 50 51 53 53 54 57 56 56 54 54 55 56 57 57 57 57 57 57 58 60 60 59 58 58 58 57 58 60 63 64 64 64 63 62 60 58 56 54 53 52 52 52 51 49 48 48 50 50 50 50 50 50 51 51 51
51 52 54 56 57 58 58 59 58 57 57 57 57 57 57 59 60 60 60 60 60 63 62 63 68 59 44 43 47 48 50 51 51 54 54 54 55 56 58 57 57 57 57 58 59 59 59 58 58 60 61 61 60 59 59 59 59 61 62 64 65 65 65 65 64 63 62 60 57 54 53 52 51 49 49 49 49 49 50 50 49 49 49 49 50 50
53 54 55 56 58 59 59 60 61 60 60 60 59 58 58 58 60 61 61 61 62 63 63 65 69 61 47 45 49 49 52 53 53 55 56 55 55 57 58 59 60 60 59 58 59 59 60 60 60 60 61 61 60 60 61 62 63 64 65 65 65 65 65 65 65 66 66 63 58 55 55 53 50 49 49 49 49 50 50 50 50 50 50 50 50 51
53 54 55 57 59 60 59 59 61 60 59 60 58 58 57 56 57 58 58 60 62 61 62 64 67 62 53 50 51 51 53 55 56 57 57 56 57 57 58 60 61 61 60 59 60 61 62 62 61 61 61 61 61 62 63 64 64 65 66 67 66 65 65 66 68 68 68 64 59 57 57 54 50 49 49 49 49 50 50 50 50 51 51 51 52 53
53 54 54 55 58 59 58 59 61 60 59 60 59 57 57 56 56 56 58 60 61 61 62 64 63 62 59 55 53 52 52 54 57 57 57 57 57 57 58 59 59 59 59 60 62 63 63 63 62 62 63 63 64 64 64 64 64 65 67 68 67 66 66 69 70 69 68 65 61 59 57 53 50 50 50 50 50 50 51 51 51 51 52 52 52 53
53 54 53 53 54 55 56 58 61 61 61 62 60 58 58 58 58 59 60 61 60 62 65 63 59 61 61 56 55 54 52 53 56 56 57 58 58 59 59 59 58 57 58 61 61 61 61 61 61 63 65 66 66 66 65 65 66 66 68 69 69 68 69 71 72 71 69 66 63 59 55 51 50 50 50 50 50 50 52 52 52 52 52 52 52 52
50 50 49 49 51 51 53 55 56 58 59 60 61 59 58 58 59 60 62 60 60 64 66 62 60 63 62 58 56 56 55 55 56 56 57 58 57 58 58 59 60 59 61 62 61 59 60 61 62 63 65 67 67 68 68 68 69 69 70 71 72 71 70 71 73 73 70 66 61 56 53 51 51 50 49 49 49 49 50 50 51 51 51 52 51 50
50 48 45 45 47 47 48 51 52 54 55 56 57 58 57 57 57 59 61 62 61 63 64 62 63 65 63 60 59 57 57 57 58 59 60 59 59 59 60 62 64 64 65 65 63 61 62 63 64 64 65 66 67 68 70 71 72 72 72 73 73 73 71 71 72 71 67 61 56 53 51 50 51 50 48 47 47 47 48 48 48 49 50 51 51 50
53 51 49 48 48 46 44 45 48 50 52 53 53 53 54 55 56 57 59 60 60 60 60 59 61 64 62 57 54 54 57 59 60 62 63 62 62 63 65 66 67 68 68 67 66 65 65 65 66 67 67 68 68 70 71 72 73 74 74 74 74 72 70 69 68 65 61 56 53 51 50 49 49 48 46 45 45 45 45 45 46 47 48 49 50 50
57 56 54 54 55 51 45 44 46 47 50 52 51 51 52 52 54 54 54 54 54 54 54 54 57 59 55 48 45 49 54 56 56 56 56 55 56 60 64 66 65 64 64 64 64 65 65 65 66 67 68 68 69 71 71 71 71 71 72 72 72 70 68 65 63 61 57 53 50 48 47 47 47 45 44 44 43 43 42 42 43 44 46 46 47 48
63 62 60 60 62 56 49 48 50 51 56 57 53 51 52 52 53 53 53 53 52 52 53 54 54 52 46 44 47 48 48 47 46 47 48 50 51 54 59 61 59 57 57 58 59 60 60 61 62 63 63 64 65 66 66 67 66 66 67 68 69 68 66 64 61 58 53 49 47 45 45 46 46 45 45 44 43 42 41 41 42 43 44 44 45 46
67 67 65 66 68 62 56 56 60 64 67 60 51 49 52 53 54 54 55 55 53 52 53 53 52 49 46 47 48 47 46 45 45 45 47 50 52 53 55 56 55 55 56 57 58 57 58 58 58 59 60 61 62 63 64 65 65 64 65 65 66 65 63 61 57 52 47 45 45 45 44 45 45 45 45 43 42 41 41 41 42 42 43 44 45 46
68 68 68 68 70 68 64 66 70 74 71 60 51 51 51 51 51 51 53 54 51 52 53 53 53 51 49 48 47 47 47 46 45 46 47 48 50 52 54 53 53 56 59 60 59 59 59 59 60 60 61 62 63 63 64 64 64 64 63 63 63 62 60 56 52 48 46 46 46 45 43 44 44 45 44 43 43 43 43 44 44 44 44 45 45 46
68 69 69 69 69 69 69 72 75 76 73 66 61 58 55 53 54 56 59 58 54 54 57 58 58 56 54 53 50 47 46 45 46 46 45 44 46 49 50 51 53 57 60 60 60 59 59 60 60 61 61 62 62 61 61 61 61 60 60 59 58 57 56 54 51 49 49 48 46 44 43 44 46 46 46 45 45 46 47 47 48 48 48 48 48 49
68 68 68 67 67 68 69 73 75 75 74 72 67 62 60 63 64 66 69 68 64 63 65 67 67 65 63 61 57 54 51 51 50 46 41 41 44 45 45 48 52 56 58 59 60 59 58 58 58 58 59 59 59 58 58 58 59 58 57 56 55 54 54 53 53 53 53 50 47 45 45 46 46 47 47 47 48 49 50 51 51 52 53 53 53 53
66 66 65 64 65 64 64 67 71 74 76 75 69 64 65 69 70 72 74 74 71 70 71 73 73 72 71 70 68 65 62 61 60 53 44 44 48 47 43 45 49 52 55 56 57 56 55 54 54 55 57 58 59 58 58 58 58 58 58 57 57 56 56 56 56 56 55 52 49 49 49 49 48 48 48 49 50 51 53 54 55 55 57 58 58 58
62 62 63 63 63 63 62 63 67 73 77 76 72 69 71 72 72 71 71 73 73 72 73 75 76 76 76 76 75 74 73 73 72 65 57 56 60 58 52 50 51 53 54 55 55 54 53 53 54 54 56 58 60 61 60 59 59 59 59 59 60 60 60 60 60 59 57 54 53 54 54 54 53 52 51 51 52 54 56 57 58 59 60 61 61 62
59 60 61 62 63 64 64 64 66 70 73 74 72 71 71 72 70 66 64 67 70 71 72 74 74 74 75 76 76 76 77 78 77 74 69 68 69 70 67 63 61 60 60 61 61 60 59 57 56 56 57 59 61 62 63 62 62 62 62 62 63 63 63 63 63 62 60 59 59 59 59 59 58 56 55 55 56 58 59 61 62 63 64 64 64 65
57 58 60 61 61 61 61 63 65 67 68 68 67 67 69 70 69 67 66 68 68 68 71 73 72 72 73 74 75 76 76 78 78 78 76 75 75 76 75 73 71 70 70 70 71 72 71 70 68 68 67 67 66 65 65 65 64 64 65 65 66 66 67 67 66 66 65 64 64 65 65 64 63 61 61 61 61 62 63 64 65 66 66 67 67 68
58 58 59 59 59 59 59 60 61 63 63 61 61 64 67 68 67 68 69 69 68 67 69 71 72 73 74 74 74 75 76 78 78 79 79 80 79 79 78 78 77 77 76 77 78 79 80 79 78 77 76 76 74 73 71 70 68 68 68 69 70 71 71 72 71 71 70 69 69 69 69 69 68 67 66 65 65 66 66 67 68 68 68 69 69 70
61 60 61 61 59 59 59 59 58 59 59 58 57 59 62 63 66 69 69 68 68 67 67 67 68 69 72 73 73 74 75 76 78 79 79 80 80 80 81 80 80 79 79 79 80 80 81 81 80 79 78 78 77 77 77 77 76 75 75 76 76 77 77 77 77 76 75 74 73 73 73 72 72 71 70 69 69 70 70 70 70 70 70 70 71 71
66 65 65 64 63 62 62 61 59 56 54 54 54 55 56 58 61 65 65 64 62 62 62 63 64 65 67 69 70 72 73 73 74 76 77 78 78 78 78 78 79 80 80 80 81 81 81 82 81 80 80 79 79 78 79 79 79 80 80 80 80 80 81 80 80 80 79 78 77 76 75 75 74 74 73 72 73 73 73 73 72 72 72 72 72 72
69 68 68 68 67 67 67 66 64 61 58 57 56 57 57 57 58 60 61 61 59 57 56 57 58 59 61 64 65 66 66 66 67 67 69 71 72 73 73 73 73 74 75 76 77 78 79 80 81 81 81 81 80 80 80 79 79 79 79 80 80 80 81 81 81 81 80 80 79 79 78 77 77 77 76 76 76 76 75 75 74 73 72 72 71 71
71 70 71 72 72 72 72 71 70 69 68 67 65 65 65 65 65 65 65 65 64 62 61 61 62 62 63 65 66 65 64 63 64 63 63 64 65 66 67 67 67 67 68 69 69 69 71 72 74 77 78 79 80 80 80 80 80 79 79 79 80 80 80 80 80 80 81 82 82 82 82 81 80 80 79 79 79 78 76 75 74 72 71 71 71 71
73 73 73 74 75 75 75 74 73 73 73 72 71 71 71 71 71 71 72 73 72 71 71 71 71 71 70 69 69 69 67 66 66 65 64 64 64 64 64 64 65 65 65 65 65 65 65 65 66 68 69 71 74 76 79 80 81 81 82 81 81 81 82 83 84 85 86 86 86 86 85 84 83 82 81 81 80 78 77 75 74 73 72 72 73 73
76 75 75 75 76 76 77 76 74 74 74 74 73 73 72 72 73 74 76 78 78 78 77 77 77 77 76 74 73 73 73 71 70 70 69 67 66 65 64 65 65 65 66 66 66 66 66 66 66 66 66 67 68 70 73 76 78 80 82 83 84 85 86 86 87 87 87 87 87 86 86 85 83 82 81 80 79 78 77 76 75 75 74 74 73 73
75 76 76 76 76 77 77 76 75 75 75 74 74 74 74 74 75 76 77 78 79 79 80 80 80 80 79 78 77 77 77 77 76 75 73 71 69 67 65 64 63 63 63 64 64 65 65 64 64 64 65 65 66 67 68 70 71 73 75 76 78 78 79 80 80 80 79 78 79 79 80 80 80 80 79 79 78 78 77 76 76 75 74 72 71 69
73 74 74 74 76 76 76 74 74 75 76 76 75 75 75 76 76 77 78 78 78 79 79 80 81 81 81 80 79 80 80 80 78 77 76 74 72 70 68 66 64 64 63 63 63 63 63 63 63 63 63 63 64 65 66 67 67 68 69 70 72 73 73 74 73 72 72 72 73 73 74 74 74 74 74 74 74 73 73 73 72 71 69 67 65 62
69 69 68 69 71 73 73 72 72 73 75 76 76 75 75 75 76 77 77 77 77 77 78 80 81 81 80 80 80 80 81 80 80 80 80 79 77 76 74 73 72 72 71 70 69 67 65 65 65 64 64 64 64 64 65 65 66 67 67 68 69 70 70 70 69 69 69 68 66 64 64 65 66 66 66 65 65 64 64 63 61 60 58 56 54 52
Wind_Direction
233 232 231 231 230 229 229 230 231 233 235 238 239 240 242 243 244 247 248 247 248 248 248 250 249 246 246 249 250 248 245 245 245 248 254 258 263 267 271 276 280 283 288 294 297 297 300 303 304 305 308 309 309 311 313 313 312 311 309 306 300 297 296 296 296 295 293 291 289 288 287 286 284 283 283 283 282 281 281 282 283 283 283 283 283 283
235 233 233 233 231 231 231 231 233 236 238 239 240 241 243 245 247 247 248 248 249 249 249 250 250 246 242 242 245 246 244 243 243 247 257 264 268 273 276 278 280 285 290 293 294 296 298 300 301 303 304 305 307 309 310 311 311 311 310 307 303 300 298 297 298 299 296 292 290 289 289 288 287 284 282 281 280 280 281 282 282 282 282 283 284 285
236 234 234 233 233 234 234 234 236 238 238 239 242 243 244 245 248 249 248 248 251 253 251 251 250 245 240 239 241 245 244 243 245 248 255 263 271 276 278 280 284 288 290 291 292 295 297 298 299 301 303 305 307 308 309 310 311 311 310 309 306 303 300 298 298 300 299 296 293 291 291 290 289 287 284 282 281 280 281 281 280 281 282 284 285 287
239 237 236 235 235 236 236 235 236 238 239 240 242 243 244 246 248 249 250 251 253 255 252 251 250 244 239 238 237 242 245 244 249 252 255 262 268 271 274 280 285 288 290 292 292 293 296 298 298 299 302 305 308 309 310 310 310 310 309 308 307 305 303 300 299 299 299 299 297 294 293 292 291 290 288 286 284 282 281 280 281 282 283 284 284 286
240 239 238 237 236 237 237 236 237 239 240 240 242 243 245 246 248 250 253 254 253 254 253 252 252 246 239 239 236 238 245 248 251 254 257 263 267 270 275 281 285 288 290 291 290 292 296 297 297 299 302 304 307 309 311 311 310 310 308 307 305 305 305 305 303 299 297 298 298 297 296 294 293 292 291 289 286 284 284 283 283 283 283 283 283 284
241 240 240 240 239 239 239 240 241 241 241 241 242 243 245 247 249 251 254 254 252 253 254 254 255 250 239 239 239 239 244 248 252 256 259 265 268 271 276 282 286 289 290 288 289 292 294 294 296 300 302 304 307 309 310 310 311 310 308 305 304 305 307 308 306 303 299 297 296 297 297 295 294 292 291 289 288 287 285 284 284 284 283 282 283 283
243 243 244 244 243 242 242 243 244 244 244 243 242 243 246 248 250 251 252 254 253 252 253 253 256 255 243 238 241 242 243 246 251 257 262 267 270 273 276 281 286 287 287 287 289 291 291 292 295 298 301 304 306 307 308 309 311 310 308 306 304 304 306 308 308 306 303 299 296 295 295 295 294 292 290 288 287 287 286 285 284 283 282 282 283 283
245 246 246 245 245 245 244 244 245 246 246 245 243 243 246 249 251 252 252 253 253 252 251 250 254 259 253 240 237 243 245 246 249 256 262 267 271 275 279 281 283 285 286 288 289 288 288 292 295 296 299 302 304 305 306 308 309 309 309 308 306 305 306 307 308 307 305 302 299 296 294 293 293 291 289 287 286 286 285 284 283 282 282 283 283 283
245 246 246 245 245 245 245 245 245 246 246 245 245 246 248 250 252 253 253 253 253 252 250 249 252 259 260 247 234 242 246 247 250 256 261 265 270 276 280 281 282 283 285 285 285 284 286 291 294 294 296 298 300 302 304 306 307 307 308 309 308 307 306 306 306 307 305 302 300 298 296 293 291 290 288 287 285 285 284 282 281 281 281 282 282 282
245 246 247 246 246 246 247 247 247 247 247 246 247 248 248 249 252 254 254 253 252 251 250 250 250 258 264 257 239 241 248 249 251 254 259 264 269 274 278 280 281 282 283 283 282 282 284 289 291 290 292 295 297 299 301 303 304 305 306 308 308 308 307 307 306 305 305 303 299 297 296 295 292 290 289 288 287 285 284 282 280 280 281 282 282 281
246 246 247 248 247 248 248 248 249 249 249 248 248 249 250 250 252 253 254 254 253 251 251 252 251 257 265 261 246 241 247 250 252 254 259 263 267 271 274 277 279 280 281 281 281 281 283 286 287 287 290 292 293 295 298 299 300 301 304 305 306 306 308 309 307 306 304 302 300 297 295 293 293 292 290 289 287 285 283 282 281 281 281 281 281 281
246 246 247 248 248 249 249 249 249 250 250 250 250 251 251 251 252 253 254 254 253 253 253 253 251 253 260 264 259 248 245 248 252 256 260 262 264 268 271 273 276 279 280 280 280 281 283 284 284 285 288 289 290 292 294 296 297 298 300 301 302 303 305 308 308 307 305 303 302 300 297 293 291 290 290 288 286 283 282 281 281 282 281 280 281 281
247 247 248 247 248 249 249 249 249 250 251 250 250 251 251 252 252 252 253 254 254 254 254 255 253 253 258 266 267 259 251 249 252 256 261 263 263 265 268 271 275 277 278 279 279 280 281 282 282 284 286 286 287 289 291 293 294 295 296 298 298 298 301 305 306 307 307 306 304 301 300 297 293 290 288 287 285 283 281 280 280 280 280 280 280 280
246 246 247 247 247 248 249 249 249 250 250 250 251 251 252 252 253 254 253 254 254 253 254 255 255 257 260 263 266 265 261 256 255 256 259 262 264 265 266 270 272 274 275 276 277 278 279 280 282 284 285 284 284 286 289 290 291 292 294 295 295 295 298 302 304 305 306 307 305 303 301 298 296 293 289 287 286 284 281 279 279 278 278 279 280 280
246 246 247 247 247 247 248 249 249 249 249 249 250 251 251 252 254 254 254 254 254 253 253 253 256 261 265 264 265 267 265 261 259 257 258 259 262 265 267 269 270 270 271 273 274 275 277 279 281 283 283 282 282 285 287 288 289 290 292 293 293 294 296 300 303 304 305 305 305 305 303 300 297 294 291 288 286 284 282 280 279 278 278 278 279 279
247 248 248 248 248 247 247 248 248 248 248 248 249 249 251 252 254 255 254 255 255 254 253 252 255 262 266 265 265 266 267 265 261 259 258 259 261 264 266 268 268 269 270 272 273 274 276 278 280 281 281 280 281 283 286 286 287 288 290 292 292 293 295 297 300 303 304 304 305 305 305 303 300 295 292 289 286 284 283 282 281 279 278 277 277 278
247 247 247 247 247 247 247 248 248 248 249 249 249 251 253 254 254 254 255 255 255 255 254 253 255 259 262 264 265 267 269 269 266 263 262 262 262 263 264 265 266 268 270 271 273 274 275 277 278 278 278 278 280 282 284 285 286 286 288 290 291 292 294 296 298 300 302 303 305 306 305 305 302 298 293 289 287 284 283 283 283 281 278 277 276 277
248 247 246 246 246 246 246 246 247 248 249 249 250 251 252 252 252 253 254 254 254 255 255 254 256 258 259 263 266 267 269 270 269 268 267 265 264 263 263 264 265 265 267 268 270 271 273 274 275 275 276 277 279 281 283 284 284 285 287 289 290 291 292 295 297 298 300 302 304 306 306 305 303 299 294 290 287 284 283 282 282 281 279 278 277 276
247 248 247 246 246 246 245 244 245 247 249 250 251 250 249 250 251 252 252 254 254 256 257 256 257 258 258 262 266 267 267 268 268 268 267 266 265 265 264 264 265 265 266 267 268 269 271 272 273 274 275 276 277 279 281 282 283 285 287 288 289 290 292 294 295 296 298 301 303 305 305 304 303 300 296 291 287 284 281 280 280 280 280 278 276 276
246 247 248 247 246 245 244 244 247 250 251 251 251 250 250 250 251 252 253 254 255 256 258 257 255 256 258 262 265 266 266 267 268 268 268 267 267 266 265 265 265 266 266 267 269 270 271 272 272 273 273 274 276 277 278 280 282 285 286 286 288 290 291 292 293 294 297 300 303 304 304 303 303 300 296 291 287 284 281 279 279 279 279 277 276 275
244 245 246 246 246 246 246 246 248 249 249 249 249 250 250 251 252 254 254 254 255 255 257 257 255 256 259 260 262 265 266 267 268 268 268 269 269 268 268 268 269 269 269 269 270 270 271 271 271 272 273 274 275 276 277 279 282 284 286 287 289 290 290 291 292 293 296 299 302 303 303 303 302 299 294 289 285 283 281 279 278 278 278 278 277 276
241 243 244 245 246 246 247 247 246 245 245 246 247 248 249 250 251 252 253 253 254 254 255 256 256 257 259 258 260 263 265 267 268 268 268 270 271 270 270 270 271 272 273 272 271 271 270 271 271 272 273 273 273 274 276 277 280 283 285 287 289 289 289 290 291 293 295 298 301 302 302 302 301 298 293 287 283 281 280 280 278 278 278 278 278 277
241 242 243 245 246 246 246 246 244 244 244 244 245 247 248 249 249 250 251 252 253 253 254 254 255 257 259 259 260 263 264 265 267 268 269 270 272 274 273 272 272 272 272 273 272 272 272 272 272 273 273 274 275 276 277 279 281 282 284 285 287 288 289 290 291 293 295 297 299 301 301 301 299 295 290 286 283 281 280 280 279 278 278 278 279 278
241 242 244 245 246 246 245 245 245 245 244 244 246 247 247 248 249 249 250 251 251 252 253 253 254 257 260 260 261 263 264 265 266 267 268 269 271 273 274 274 273 272 271 271 272 273 273 273 273 273 274 276 278 279 280 281 282 282 282 283 284 286 288 289 291 293 294 296 298 300 301 300 296 292 288 286 284 282 280 279 279 279 279 279 280 280
242 243 244 245 246 246 246 248 248 248 248 248 248 247 246 247 248 248 249 250 250 252 254 254 257 260 261 258 259 261 263 264 265 265 266 267 268 269 270 272 272 272 273 273 273 274 274 274 274 275 276 277 278 279 280 280 280 280 281 281 283 284 286 288 290 292 293 295 298 300 301 298 293 289 287 286 284 282 280 279 279 279 279 279 280 280
242 243 243 244 246 247 248 250 250 250 251 251 250 249 249 249 250 251 252 253 253 255 256 257 261 263 260 257 256 257 260 263 264 264 264 265 265 266 267 269 270 272 274 275 275 275 274 274 275 276 277 277 278 278 278 278 278 280 281 281 283 284 287 289 290 291 292 294 297 300 299 296 291 286 285 284 282 281 280 279 279 280 280 280 280 280
241 241 242 244 246 248 249 251 251 251 251 252 252 251 251 250 251 252 252 254 256 258 257 257 261 264 262 259 257 256 258 261 263 264 265 265 265 266 266 267 269 271 273 273 273 274 274 275 276 277 277 277 277 277 277 278 279 280 281 282 284 286 288 289 289 290 292 295 298 299 298 293 288 284 283 281 281 280 279 279 280 281 281 281 280 280
243 243 243 244 246 248 249 251 252 253 253 254 254 253 254 254 253 254 254 256 259 260 260 261 264 266 265 262 259 258 257 258 260 263 265 265 265 265 266 267 268 269 270 270 270 272 274 275 276 277 277 277 277 277 278 279 280 282 283 285 286 288 288 289 290 291 293 296 298 298 295 290 286 283 281 281 280 280 279 280 281 282 283 282 282 281
245 245 245 246 247 247 249 251 253 255 256 257 258 257 256 256 255 257 258 259 261 262 263 264 264 265 265 264 262 261 260 260 261 263 264 265 266 267 268 268 267 266 265 265 266 269 271 272 274 275 275 276 277 278 280 281 282 283 285 286 286 287 288 289 290 291 293 295 297 295 291 287 283 281 281 281 281 280 280 281 282 283 284 284 284 283
240 241 240 242 243 241 243 246 249 252 253 255 255 255 254 254 255 257 260 261 261 262 263 265 264 264 267 268 268 265 263 263 264 264 264 264 266 266 265 265 264 264 264 264 265 267 269 270 271 272 274 276 278 280 281 282 283 283 284 284 285 287 287 288 288 290 292 295 295 292 288 284 282 282 282 282 282 281 281 282 283 284 284 285 285 285
237 237 236 237 239 236 235 239 242 244 247 248 249 251 251 251 253 255 258 260 260 262 265 267 267 267 268 271 271 268 264 263 263 263 264 265 267 267 267 266 265 266 267 268 269 269 270 270 271 272 274 275 277 278 279 280 281 282 283 284 285 285 286 286 287 289 292 294 292 289 286 284 283 284 285 284 283 282 282 283 284 284 284 284 284 285
240 239 237 238 241 236 231 235 238 239 245 247 245 247 250 253 256 258 259 260 260 263 266 266 267 269 270 269 268 267 266 265 265 266 267 267 268 269 268 268 267 268 269 270 271 270 270 270 271 271 273 274 275 275 276 277 279 280 282 283 284 285 285 287 288 289 292 292 289 286 285 285 285 286 286 285 284 284 284 285 284 284 283 283 284 284
247 247 244 245 249 242 232 237 243 244 249 249 244 246 252 257 260 262 262 262 262 264 264 263 265 268 267 263 263 266 267 267 265 264 264 264 263 263 264 265 267 269 269 269 269 269 269 269 269 270 271 271 272 273 275 276 277 278 280 281 282 284 286 287 288 290 290 289 286 285 285 285 286 287 286 286 286 286 286 286 285 284 284 283 283 283
253 253 252 253 256 250 241 244 251 253 253 249 244 248 253 256 259 262 263 264 265 266 265 264 264 263 262 264 267 268 267 265 264 261 259 262 262 260 260 262 266 268 267 267 267 268 268 269 269 270 270 271 272 273 274 275 277 277 278 279 280 282 283 285 286 287 285 283 283 284 285 286 287 288 288 287 288 289 289 288 287 286 285 284 283 283
256 257 257 258 260 257 252 253 256 258 255 248 246 251 253 254 259 262 263 263 265 266 264 264 264 264 266 269 270 270 268 265 263 260 259 261 263 260 259 260 263 265 264 265 266 267 268 269 269 269 270 270 271 272 273 275 276 277 278 278 279 280 280 281 281 280 279 279 281 282 284 287 288 288 289 290 291 291 291 291 290 289 288 286 285 285
257 258 259 259 261 261 258 257 259 260 257 252 250 252 253 256 259 261 261 261 261 262 263 265 266 267 269 270 270 269 267 262 259 259 263 265 262 259 259 259 259 261 262 263 265 265 266 267 268 269 270 270 271 272 273 274 276 277 278 278 279 278 278 278 277 276 277 278 278 279 283 286 286 287 288 290 292 293 293 294 293 292 291 290 289 288
257 258 259 260 261 261 262 261 262 263 261 257 253 252 255 260 261 261 262 260 258 260 262 264 266 266 267 267 267 264 262 260 259 261 265 265 259 255 257 256 256 258 260 261 263 264 264 265 267 269 270 271 271 272 273 274 276 277 277 277 277 277 277 277 277 277 278 276 275 277 281 283 283 283 285 288 291 292 293 294 294 293 293 292 291 290
257 258 259 261 261 262 263 263 263 264 263 260 257 256 259 263 264 264 264 262 259 259 261 263 264 265 265 265 265 264 263 262 262 262 262 259 257 257 258 258 258 258 258 259 259 261 263 265 268 270 272 272 272 272 272 273 273 274 275 276 276 277 277 278 278 278 277 274 272 275 278 279 278 279 281 285 288 290 291 292 292 292 292 291 291 290
256 257 258 259 260 261 262 263 263 265 265 262 260 261 262 264 266 267 268 266 264 262 263 264 265 265 266 266 266 266 266 265 264 264 260 258 258 260 260 261 262 262 262 262 261 261 264 267 270 273 274 274 273 272 272 272 272 272 273 274 275 276 277 278 278 277 275 271 270 272 274 275 276 277 280 283 286 288 290 291 291 291 291 291 290 289
256 257 258 259 260 261 262 264 265 266 266 265 264 264 265 266 268 268 267 267 267 266 266 266 267 267 267 267 267 267 267 267 267 266 264 262 261 262 262 261 261 261 262 263 264 265 266 268 269 272 274 275 274 273 272 271 271 272 273 274 276 276 277 277 277 276 274 271 269 270 272 274 276 278 281 284 287 289 291 291 291 291 291 290 289 288
255 257 258 259 261 261 262 264 266 267 268 267 266 265 265 266 267 266 266 268 269 268 268 268 268 268 268 268 267 267 268 268 268 267 266 265 264 264 264 264 263 262 261 262 264 266 267 267 268 269 271 272 273 273 273 272 271 271 273 275 276 277 277 277 276 276 274 271 270 271 272 274 276 278 281 283 286 288 290 291 291 290 289 289 288 288
256 257 258 259 261 262 263 264 266 267 268 267 266 265 265 265 265 265 267 269 269 269 268 268 268 268 268 267 267 267 267 268 268 268 267 266 265 265 266 266 265 264 264 264 265 266 267 267 268 269 269 269 270 270 271 271 271 271 272 274 275 276 276 277 276 275 274 272 271 271 272 273 275 277 279 282 284 287 289 290 290 288 287 286 286 286
257 257 258 258 260 261 262 262 263 266 268 268 267 265 263 263 263 265 266 267 267 267 266 266 266 267 267 267 267 267 267 267 267 268 268 267 267 266 266 266 266 265 265 266 266 267 268 268 268 269 268 268 267 267 268 268 269 269 270 271 273 273 274 275 275 274 273 272 270 270 270 272 273 275 278 280 283 285 287 288 288 286 286 285 285 285
256 257 258 259 259 259 259 259 261 264 267 267 265 264 262 261 263 265 266 265 264 264 264 264 264 265 266 266 266 266 267 267 267 268 268 268 268 267 267 267 266 266 266 266 266 266 267 268 268 268 268 268 267 267 267 267 268 268 269 270 270 271 271 271 271 272 271 270 270 270 270 272 273 276 278 281 283 285 287 287 286 285 285 285 284 284
257 258 259 259 259 259 259 259 260 261 261 260 261 262 262 262 262 263 264 264 263 262 262 262 262 263 264 266 266 266 267 267 267 268 268 268 268 268 268 267 267 267 267 266 266 266 266 267 267 267 267 267 267 266 266 267 267 267 268 268 268 268 268 268 269 270 270 270 270 270 271 273 275 278 280 282 283 285 285 285 284 284 284 283 283 284
258 259 259 259 259 260 260 261 262 262 261 261 260 260 261 262 262 263 263 264 263 263 263 263 263 264 264 265 267 267 267 267 268 268 268 268 268 267 267 267 267 267 267 267 267 266 266 266 266 266 266 266 266 266 266 266 266 267 267 267 267 267 267 268 269 270 270 271 272 273 274 276 278 279 281 282 283 283 283 283 283 283 283 283 283 284
258 258 259 260 260 261 261 262 263 263 263 263 262 261 260 261 262 262 263 263 264 265 265 265 266 266 266 266 266 267 267 268 269 269 269 268 268 267 267 266 266 266 266 266 265 265 266 266 266 266 266 266 266 266 266 266 266 266 266 267 267 268 268 269 271 272 273 274 275 276 277 278 279 279 280 280 281 281 280 280 280 281 281 282 283 285
259 259 259 260 260 261 262 263 263 263 264 263 262 261 261 261 261 261 261 262 263 265 265 265 266 266 265 265 266 266 267 268 269 269 269 269 269 268 267 267 267 267 267 267 268 268 267 267 267 267 266 266 266 265 266 266 266 266 267 267 268 269 270 271 272 273 274 275 276 277 278 278 279 279 279 279 279 278 279 279 280 281 282 283 285 287
258 259 260 261 261 261 262 263 263 263 262 262 262 262 262 262 261 261 261 262 263 264 264 264 264 264 265 265 265 265 266 267 268 268 268 268 268 267 267 267 267 267 268 268 269 269 268 268 267 266 266 265 265 264 264 265 265 266 267 268 268 269 270 271 272 274 275 276 276 277 277 277 278 278 278 278 278 278 278 279 281 282 283 285 286 285
258 259 260 261 262 262 262 263 263 262 261 261 262 262 262 262 262 262 262 263 263 263 263 263 263 264 265 265 265 264 264 265 266 266 266 266 265 265 264 264 265 266 267 267 267 266 266 266 267 267 267 266 265 264 264 264 265 266 267 268 269 270 271 272 274 275 276 277 278 278 277 277 277 277 278 278 279 280 280 281 282 282 282 282 280 278
260 261 261 262 262 262 261 261 262 262 262 262 262 262 262 263 263 263 263 263 263 263 263 264 264 264 264 265 265 265 265 264 264 264 264 265 264 264 264 264 265 266 267 267 266 265 264 264 266 267 268 268 268 267 267 266 266 267 268 269 270 271 272 274 275 276 277 278 279 279 278 277 278 278 279 280 280 280 280 279 278 277 276 275 274 273
Height
5821 5823 5825 5827 5829 5830 5831 5833 5833 5834 5837 5839 5841 5842 5843 5844 5845 5846 5848 5850 5850 5851 5853 5855 5856 5858 5859 5859 5860 5860 5862 5863 5864 5864 5865 5866 5866 5867 5867 5867 5867 5867 5867 5866 5867 5867 5867 5867 5866 5866 5865 5865 5864 5864 5863 5862 5861 5860 5859 5859 5857 5856 5855 5854 5854 5853 5853 5852 5851 5851 5851 5851 5851 5850 5849 5849 5849 5848 5847 5847 5846 5845 5845 5844 5843 5843
5819 5820 5823 5824 5826 5827 5829 5830 5831 5833 5835 5837 5838 5840 5841 5842 5843 5844 5846 5846 5846 5849 5851 5852 5853 5856 5858 5857 5858 5858 5860 5861 5862 5863 5863 5864 5865 5865 5865 5865 5865 5865 5865 5865 5865 5865 5865 5865 5864 5864 5863 5863 5863 5862 5861 5860 5859 5859 5858 5857 5855 5854 5853 5852 5852 5851 5850 5849 5848 5848 5848 5848 5848 5848 5847 5846 5846 5845 5844 5844 5843 5842 5842 5841 5840 5840
5816 5818 5820 5821 5823 5825 5827 5828 5829 5830 5832 5834 5836 5838 5839 5840 5840 5841 5842 5843 5844 5847 5849 5849 5851 5854 5855 5855 5856 5856 5858 5859 5860 5861 5862 5862 5863 5863 5863 5863 5864 5864 5863 5863 5863 5863 5863 5863 5862 5862 5861 5861 5860 5860 5859 5858 5857 5857 5856 5855 5854 5852 5851 5850 5850 5849 5848 5847 5846 5845 5845 5845 5845 5844 5844 5843 5843 5842 5842 5841 5840 5839 5839 5838 5837 5837
5813 5816 5817 5819 5821 5823 5824 5825 5826 5827 5830 5832 5834 5835 5836 5837 5837 5837 5839 5841 5843 5844 5845 5846 5848 5851 5853 5853 5854 5854 5855 5857 5858 5859 5860 5860 5861 5861 5861 5862 5862 5862 5862 5861 5861 5861 5861 5861 5860 5860 5859 5859 5858 5858 5857 5856 5855 5855 5853 5852 5851 5850 5849 5848 5847 5847 5846 5845 5844 5843 5842 5842 5842 5841 5840 5840 5839 5839 5838 5837 5836 5836 5836 5835 5834 5833
5811 5812 5814 5816 5818 5819 5820 5822 5823 5825 5828 5829 5831 5832 5833 5834 5834 5834 5837 5839 5840 5840 5842 5844 5845 5849 5851 5850 5852 5852 5853 5855 5855 5856 5858 5858 5858 5858 5859 5860 5860 5860 5860 5859 5859 5859 5859 5859 5858 5857 5857 5857 5856 5855 5855 5854 5853 5852 5851 5850 5849 5848 5846 5846 5845 5844 5843 5842 5841 5840 5840 5839 5839 5838 5837 5836 5836 5835 5834 5834 5833 5833 5832 5831 5831 5830
5808 5809 5812 5813 5815 5816 5817 5819 5821 5823 5825 5826 5828 5829 5830 5831 5831 5832 5834 5834 5836 5837 5839 5842 5841 5844 5848 5848 5849 5851 5852 5853 5853 5854 5856 5856 5855 5856 5857 5858 5858 5858 5858 5857 5857 5857 5857 5857 5856 5855 5854 5854 5854 5853 5852 5851 5851 5850 5849 5848 5847 5845 5844 5843 5842 5841 5841 5840 5839 5838 5837 5836 5836 5835 5834 5833 5832 5832 5831 5830 5829 5829 5828 5827 5827 5827
5805 5807 5809 5811 5812 5814 5815 5817 5819 5820 5822 5823 5825 5826 5827 5827 5828 5829 5830 5830 5833 5835 5837 5839 5837 5839 5844 5847 5848 5849 5849 5850 5851 5852 5853 5853 5852 5853 5855 5856 5855 5855 5855 5855 5854 5854 5854 5854 5854 5853 5852 5851 5851 5850 5850 5849 5848 5847 5846 5845 5844 5843 5842 5840 5839 5838 5838 5837 5836 5835 5834 5833 5833 5832 5832 5830 5829 5829 5828 5827 5826 5825 5824 5824 5823 5823
5803 5804 5806 5808 5809 5811 5812 5814 5815 5817 5818 5819 5821 5823 5824 5824 5825 5826 5827 5827 5829 5832 5834 5836 5835 5834 5839 5845 5847 5846 5846 5847 5849 5850 5851 5851 5850 5850 5853 5854 5853 5853 5853 5853 5852 5852 5852 5852 5851 5851 5850 5849 5848 5848 5847 5847 5846 5845 5844 5843 5841 5840 5839 5838 5837 5836 5835 5834 5833 5832 5831 5830 5830 5829 5828 5827 5826 5825 5825 5823 5822 5821 5820 5820 5819 5819
5799 5800 5802 5804 5806 5807 5809 5810 5812 5813 5814 5816 5818 5819 5821 5822 5822 5822 5824 5825 5826 5828 5829 5832 5833 5830 5832 5841 5846 5843 5843 5845 5847 5849 5849 5848 5848 5848 5849 5850 5850 5850 5850 5850 5850 5849 5849 5849 5849 5848 5847 5846 5846 5845 5845 5844 5843 5842 5841 5840 5839 5837 5836 5835 5834 5833 5832 5831 5830 5829 5828 5827 5826 5825 5824 5824 5823 5822 5821 5820 5818 5817 5816 5815 5815 5814
5796 5797 5798 5800 5802 5804 5806 5807 5808 5809 5811 5813 5814 5815 5817 5818 5818 5819 5820 5822 5822 5823 5826 5829 5831 5828 5826 5835 5843 5841 5841 5843 5846 5846 5846 5846 5846 5846 5846 5847 5847 5847 5847 5847 5847 5847 5847 5846 5846 5845 5844 5843 5843 5842 5842 5841 5840 5839 5838 5837 5836 5835 5833 5832 5831 5830 5829 5828 5827 5826 5825 5824 5823 5822 5821 5820 5820 5819 5817 5815 5814 5813 5812 5811 5810 5810
5791 5793 5794 5797 5799 5800 5802 5803 5804 5805 5807 5810 5811 5811 5813 5814 5815 5816 5817 5818 5818 5819 5823 5825 5828 5828 5823 5826 5837 5840 5839 5841 5843 5843 5843 5844 5844 5843 5843 5843 5843 5844 5844 5844 5844 5844 5844 5843 5843 5842 5842 5840 5840 5840 5839 5838 5837 5836 5835 5834 5833 5832 5831 5830 5829 5828 5826 5825 5824 5823 5822 5821 5820 5818 5817 5816 5816 5815 5813 5811 5810 5809 5808 5807 5806 5805
5787 5788 5791 5793 5794 5796 5798 5799 5800 5801 5803 5805 5806 5807 5809 5810 5811 5812 5813 5815 5815 5817 5820 5821 5824 5826 5820 5820 5831 5837 5837 5839 5840 5840 5841 5841 5841 5840 5840 5840 5840 5840 5840 5840 5840 5840 5840 5839 5839 5839 5838 5837 5836 5836 5836 5835 5834 5833 5832 5831 5830 5829 5828 5827 5826 5825 5823 5822 5821 5820 5819 5818 5817 5815 5814 5813 5811 5811 5810 5807 5805 5805 5804 5803 5802 5801
5782 5784 5787 5788 5790 5792 5793 5795 5796 5797 5799 5800 5801 5803 5804 5805 5806 5808 5810 5811 5812 5814 5816 5816 5818 5820 5819 5820 5824 5829 5833 5837 5838 5838 5837 5837 5837 5837 5837 5837 5837 5837 5836 5836 5836 5836 5836 5835 5836 5836 5835 5833 5832 5832 5832 5832 5831 5830 5829 5828 5827 5826 5825 5824 5823 5821 5820 5818 5817 5816 5815 5814 5813 5812 5810 5809 5807 5806 5805 5803 5801 5800 5800 5799 5798 5797
5777 5779 5781 5783 5785 5787 5788 5790 5792 5793 5794 5795 5797 5798 5799 5801 5802 5804 5806 5806 5808 5811 5811 5811 5813 5814 5817 5820 5819 5821 5828 5833 5835 5835 5834 5834 5833 5833 5834 5834 5834 5833 5832 5832 5832 5832 5831 5831 5831 5832 5831 5829 5828 5828 5828 5827 5827 5826 5825 5824 5823 5822 5821 5820 5819 5818 5817 5815 5813 5812 5811 5810 5809 5807 5806 5805 5803 5802 5800 5799 5797 5796 5795 5794 5793 5792
5771 5773 5776 5778 5780 5782 5784 5786 5787 5788 5789 5790 5792 5792 5793 5797 5798 5799 5801 5801 5803 5806 5807 5807 5808 5809 5813 5818 5817 5817 5823 5828 5830 5831 5830 5830 5830 5829 5830 5831 5829 5829 5828 5828 5828 5827 5827 5827 5827 5828 5827 5825 5824 5824 5823 5823 5822 5822 5821 5820 5819 5818 5817 5816 5815 5814 5813 5811 5810 5808 5806 5805 5804 5803 5801 5800 5799 5797 5795 5794 5793 5791 5790 5789 5787 5786
5766 5768 5771 5773 5775 5777 5779 5780 5781 5781 5783 5786 5786 5786 5789 5794 5795 5793 5794 5796 5799 5800 5801 5803 5805 5807 5809 5812 5812 5813 5817 5822 5824 5825 5825 5825 5826 5826 5826 5826 5825 5824 5824 5824 5823 5822 5822 5823 5823 5823 5822 5821 5819 5819 5819 5818 5817 5817 5816 5815 5815 5814 5813 5812 5811 5810 5809 5807 5806 5804 5802 5800 5799 5797 5796 5795 5793 5791 5790 5789 5788 5786 5785 5784 5782 5780
5760 5761 5764 5767 5769 5772 5774 5774 5774 5776 5779 5781 5781 5782 5787 5790 5789 5788 5788 5792 5793 5791 5795 5800 5801 5804 5807 5806 5808 5810 5813 5816 5817 5819 5820 5820 5821 5822 5822 5821 5821 5820 5820 5819 5819 5818 5817 5818 5818 5817 5816 5816 5815 5814 5814 5813 5812 5811 5811 5810 5809 5808 5808 5807 5806 5805 5804 5803 5801 5800 5798 5796 5794 5792 5790 5789 5788 5786 5784 5783 5782 5781 5779 5778 5777 5775
5753 5754 5757 5761 5763 5766 5768 5768 5768 5770 5774 5776 5777 5780 5783 5783 5782 5782 5782 5785 5786 5784 5789 5796 5797 5801 5804 5802 5803 5808 5810 5810 5810 5812 5813 5814 5814 5816 5816 5816 5816 5816 5815 5815 5814 5813 5813 5812 5812 5812 5811 5810 5810 5809 5808 5807 5806 5805 5805 5805 5804 5803 5802 5802 5801 5800 5799 5798 5797 5795 5793 5791 5789 5787 5785 5783 5782 5780 5778 5777 5776 5774 5773 5772 5771 5769
5746 5747 5750 5755 5758 5760 5761 5761 5762 5765 5768 5770 5772 5775 5776 5776 5776 5776 5776 5778 5781 5779 5782 5791 5793 5794 5799 5800 5800 5804 5806 5805 5805 5806 5806 5806 5807 5810 5811 5811 5810 5810 5810 5809 5809 5808 5808 5807 5807 5806 5805 5805 5805 5804 5803 5800 5799 5799 5799 5798 5797 5797 5797 5796 5795 5794 5794 5793 5792 5790 5788 5786 5784 5782 5780 5778 5776 5774 5773 5771 5770 5769 5768 5766 5765 5763
5741 5742 5744 5748 5751 5753 5754 5756 5759 5762 5763 5765 5767 5768 5770 5771 5771 5770 5771 5773 5775 5774 5776 5783 5786 5788 5796 5800 5798 5798 5800 5800 5800 5801 5798 5798 5801 5803 5804 5805 5804 5804 5804 5804 5803 5803 5802 5801 5800 5799 5799 5799 5798 5798 5796 5794 5792 5793 5793 5792 5791 5791 5790 5789 5789 5788 5789 5788 5786 5784 5782 5780 5778 5776 5774 5772 5770 5768 5766 5765 5764 5763 5762 5760 5759 5758
5734 5735 5737 5741 5743 5745 5747 5752 5756 5757 5757 5758 5760 5762 5764 5766 5766 5765 5765 5767 5769 5768 5770 5774 5776 5784 5795 5798 5794 5794 5795 5795 5795 5794 5792 5791 5792 5796 5797 5798 5797 5797 5798 5798 5797 5796 5795 5794 5793 5792 5793 5792 5791 5790 5789 5788 5787 5786 5786 5784 5784 5784 5783 5782 5782 5782 5782 5782 5781 5779 5776 5774 5772 5770 5768 5766 5763 5761 5760 5759 5758 5757 5755 5754 5754 5753
5727 5729 5731 5733 5736 5739 5744 5748 5750 5749 5750 5752 5754 5756 5759 5761 5760 5758 5757 5760 5762 5762 5764 5765 5766 5779 5793 5793 5791 5791 5790 5791 5790 5788 5788 5785 5784 5788 5791 5792 5791 5790 5790 5789 5788 5788 5787 5786 5786 5786 5785 5785 5784 5783 5783 5782 5782 5782 5780 5777 5776 5776 5775 5775 5775 5775 5776 5776 5775 5773 5771 5768 5766 5763 5761 5759 5757 5755 5754 5753 5752 5751 5750 5749 5748 5747
5722 5723 5725 5726 5730 5735 5738 5740 5740 5741 5744 5745 5746 5751 5753 5753 5752 5750 5749 5753 5755 5753 5758 5758 5755 5771 5790 5789 5787 5788 5785 5786 5785 5782 5783 5782 5780 5780 5782 5784 5785 5783 5783 5781 5780 5779 5779 5779 5779 5778 5777 5776 5777 5777 5776 5776 5777 5776 5774 5771 5769 5768 5768 5768 5768 5768 5768 5768 5768 5767 5764 5762 5759 5757 5754 5752 5751 5749 5748 5747 5746 5745 5744 5743 5742 5741
5716 5717 5719 5722 5725 5728 5730 5731 5733 5735 5736 5737 5740 5745 5746 5744 5745 5743 5742 5746 5746 5745 5750 5748 5743 5763 5787 5787 5783 5784 5780 5780 5781 5778 5778 5778 5777 5775 5774 5774 5775 5775 5775 5774 5773 5772 5771 5771 5770 5769 5769 5769 5770 5770 5769 5770 5769 5768 5766 5764 5763 5763 5762 5761 5761 5760 5760 5761 5761 5760 5758 5755 5753 5750 5747 5746 5744 5743 5741 5741 5740 5739 5738 5737 5736 5735
5710 5711 5714 5716 5717 5719 5723 5726 5726 5728 5730 5731 5735 5738 5738 5739 5738 5735 5736 5738 5736 5738 5744 5740 5735 5756 5781 5782 5778 5778 5775 5774 5775 5772 5772 5773 5772 5771 5769 5767 5766 5765 5767 5767 5766 5766 5764 5763 5762 5762 5762 5763 5763 5763 5762 5761 5760 5759 5758 5757 5757 5757 5756 5755 5754 5752 5751 5752 5754 5753 5750 5748 5746 5743 5741 5739 5738 5736 5735 5734 5733 5732 5732 5731 5730 5729
5704 5705 5707 5709 5710 5713 5719 5721 5720 5723 5725 5725 5729 5732 5734 5735 5732 5731 5733 5730 5728 5736 5739 5733 5732 5749 5768 5774 5773 5773 5771 5769 5767 5764 5765 5766 5766 5765 5765 5762 5760 5759 5759 5759 5757 5756 5756 5755 5755 5755 5755 5756 5756 5755 5754 5753 5753 5752 5751 5750 5751 5751 5750 5748 5746 5744 5743 5745 5747 5746 5743 5741 5738 5736 5734 5732 5730 5729 5728 5727 5726 5725 5725 5724 5723 5722
5696 5697 5701 5704 5705 5709 5715 5714 5712 5717 5718 5717 5722 5726 5727 5728 5727 5726 5725 5722 5726 5732 5729 5728 5733 5740 5752 5763 5766 5767 5769 5765 5759 5756 5758 5759 5758 5759 5759 5757 5756 5755 5754 5752 5749 5747 5746 5747 5748 5748 5748 5748 5747 5746 5745 5744 5745 5745 5743 5743 5743 5744 5743 5740 5737 5736 5736 5738 5739 5738 5736 5733 5730 5728 5727 5725 5724 5722 5721 5720 5720 5719 5717 5717 5716 5715
5690 5692 5697 5699 5700 5705 5709 5707 5706 5710 5711 5711 5716 5719 5720 5720 5720 5718 5716 5720 5726 5723 5718 5728 5735 5732 5738 5751 5756 5760 5763 5759 5752 5750 5751 5750 5751 5752 5751 5751 5751 5750 5747 5744 5742 5741 5740 5740 5740 5740 5738 5738 5737 5736 5736 5736 5737 5737 5736 5736 5736 5735 5734 5730 5728 5728 5729 5730 5731 5730 5728 5725 5722 5721 5720 5718 5717 5715 5714 5713 5712 5711 5710 5709 5708 5707
5684 5687 5692 5693 5694 5699 5702 5702 5702 5704 5705 5706 5708 5712 5713 5713 5712 5711 5712 5718 5721 5714 5712 5725 5730 5723 5728 5740 5747 5752 5753 5749 5747 5746 5744 5743 5745 5745 5745 5743 5742 5741 5739 5736 5736 5736 5735 5734 5733 5732 5730 5728 5728 5728 5728 5729 5729 5729 5729 5728 5726 5726 5725 5723 5720 5720 5721 5723 5723 5722 5719 5717 5715 5713 5713 5712 5710 5709 5707 5706 5705 5703 5702 5701 5700 5700
5678 5681 5687 5685 5686 5691 5695 5696 5698 5698 5698 5699 5700 5702 5704 5704 5706 5707 5708 5712 5712 5706 5708 5717 5718 5717 5724 5731 5737 5742 5743 5741 5740 5737 5736 5736 5737 5737 5736 5734 5732 5730 5729 5730 5731 5732 5731 5729 5728 5727 5724 5723 5723 5722 5722 5721 5721 5720 5720 5719 5717 5717 5717 5716 5714 5713 5714 5716 5715 5713 5711 5709 5708 5707 5706 5705 5704 5702 5701 5699 5698 5696 5695 5694 5693 5692
5672 5676 5679 5677 5677 5683 5689 5691 5691 5691 5691 5691 5692 5694 5696 5698 5701 5703 5704 5705 5703 5701 5705 5709 5707 5711 5722 5726 5725 5728 5732 5731 5729 5727 5728 5731 5731 5728 5726 5723 5723 5723 5724 5726 5727 5726 5725 5724 5723 5721 5720 5719 5718 5717 5715 5714 5712 5710 5711 5710 5710 5710 5710 5709 5708 5707 5708 5708 5707 5705 5704 5702 5701 5700 5699 5698 5697 5695 5694 5693 5692 5690 5689 5688 5686 5685
5666 5669 5671 5671 5669 5676 5685 5686 5684 5685 5683 5680 5683 5689 5692 5695 5697 5699 5699 5699 5698 5699 5702 5701 5698 5704 5717 5720 5715 5716 5721 5722 5721 5721 5723 5726 5726 5721 5715 5713 5714 5717 5719 5719 5718 5717 5716 5716 5716 5714 5713 5712 5710 5708 5707 5706 5706 5705 5704 5703 5702 5701 5701 5701 5701 5700 5700 5700 5699 5698 5697 5695 5695 5694 5693 5691 5690 5689 5688 5687 5686 5684 5682 5681 5680 5678
5660 5661 5664 5664 5662 5669 5681 5679 5676 5676 5669 5667 5679 5690 5693 5692 5692 5691 5691 5691 5695 5696 5694 5692 5694 5700 5707 5709 5707 5710 5713 5713 5713 5715 5716 5716 5717 5713 5706 5705 5708 5711 5712 5710 5709 5708 5708 5708 5707 5706 5705 5704 5702 5701 5700 5700 5700 5700 5699 5697 5694 5693 5693 5693 5693 5693 5693 5692 5691 5690 5690 5688 5688 5687 5685 5684 5683 5681 5681 5680 5679 5678 5676 5675 5674 5673
5653 5655 5657 5657 5655 5662 5673 5672 5667 5660 5655 5664 5684 5691 5688 5686 5685 5684 5684 5687 5691 5689 5685 5685 5689 5693 5697 5700 5702 5705 5706 5705 5704 5705 5707 5708 5708 5705 5701 5701 5704 5705 5703 5700 5700 5701 5700 5700 5700 5699 5698 5697 5696 5695 5694 5692 5692 5692 5692 5690 5689 5687 5686 5686 5685 5685 5685 5684 5683 5682 5681 5680 5680 5679 5678 5677 5675 5674 5673 5673 5672 5671 5670 5669 5668 5666
5646 5648 5649 5650 5649 5654 5662 5662 5653 5645 5651 5670 5683 5683 5681 5682 5681 5679 5679 5683 5685 5682 5679 5678 5680 5685 5690 5693 5696 5697 5696 5696 5694 5695 5700 5703 5701 5696 5694 5697 5699 5696 5692 5691 5692 5694 5693 5692 5692 5692 5691 5690 5690 5689 5687 5686 5685 5684 5684 5683 5682 5681 5680 5679 5678 5678 5677 5676 5676 5675 5674 5673 5672 5671 5670 5669 5667 5666 5666 5665 5665 5664 5663 5662 5661 5660
5639 5640 5641 5642 5642 5644 5649 5648 5642 5641 5652 5666 5672 5675 5679 5680 5678 5675 5671 5673 5678 5676 5673 5671 5672 5678 5682 5684 5687 5688 5687 5686 5684 5687 5696 5700 5695 5687 5686 5691 5692 5686 5683 5684 5685 5686 5687 5685 5684 5684 5683 5683 5683 5682 5681 5680 5678 5677 5677 5676 5676 5674 5674 5673 5672 5671 5670 5670 5669 5668 5667 5666 5665 5664 5663 5661 5660 5659 5658 5658 5657 5657 5656 5655 5654 5653
5631 5632 5633 5634 5634 5635 5636 5637 5637 5638 5643 5653 5665 5675 5678 5673 5671 5667 5659 5662 5671 5671 5666 5665 5666 5669 5673 5674 5676 5677 5676 5675 5675 5684 5694 5692 5683 5678 5680 5684 5683 5679 5678 5679 5678 5678 5679 5678 5677 5677 5676 5676 5676 5676 5675 5674 5672 5671 5671 5670 5669 5668 5667 5667 5666 5665 5664 5663 5662 5662 5661 5660 5659 5657 5656 5654 5653 5652 5651 5650 5649 5649 5648 5647 5646 5645
5623 5624 5626 5625 5625 5628 5628 5627 5629 5627 5630 5646 5663 5672 5669 5662 5659 5655 5645 5648 5661 5665 5660 5658 5659 5660 5662 5663 5664 5667 5668 5666 5667 5680 5690 5682 5671 5671 5676 5677 5677 5675 5673 5672 5672 5672 5672 5671 5671 5671 5669 5669 5669 5669 5668 5667 5666 5666 5664 5663 5662 5661 5661 5661 5660 5659 5658 5657 5656 5654 5654 5653 5652 5651 5649 5648 5646 5645 5644 5643 5642 5641 5640 5639 5638 5636
5615 5616 5618 5616 5616 5621 5620 5618 5619 5618 5624 5643 5657 5661 5658 5651 5647 5643 5633 5634 5649 5658 5654 5650 5651 5651 5652 5653 5655 5657 5657 5656 5658 5670 5678 5673 5665 5665 5669 5671 5671 5669 5667 5666 5666 5666 5666 5665 5665 5664 5663 5662 5662 5661 5661 5660 5660 5659 5658 5657 5656 5655 5655 5654 5652 5651 5651 5650 5648 5647 5646 5645 5644 5643 5642 5641 5639 5638 5636 5635 5634 5633 5632 5631 5629 5628
5609 5609 5610 5608 5609 5614 5614 5611 5611 5612 5620 5637 5648 5650 5646 5641 5638 5632 5622 5623 5638 5646 5644 5642 5642 5641 5642 5643 5645 5646 5645 5645 5648 5656 5664 5664 5660 5658 5659 5662 5663 5663 5661 5660 5659 5658 5659 5658 5658 5658 5657 5656 5655 5654 5653 5653 5653 5652 5651 5650 5649 5648 5648 5646 5645 5644 5643 5642 5641 5639 5638 5637 5636 5635 5634 5633 5632 5630 5629 5628 5626 5625 5624 5622 5621 5619
5602 5602 5602 5602 5604 5608 5608 5605 5604 5608 5617 5630 5637 5638 5635 5631 5625 5618 5612 5618 5628 5634 5635 5635 5632 5631 5632 5633 5634 5636 5636 5636 5638 5643 5649 5651 5650 5649 5649 5651 5652 5653 5653 5652 5651 5650 5650 5650 5650 5650 5650 5649 5648 5647 5646 5645 5646 5645 5644 5643 5642 5641 5640 5638 5637 5637 5635 5634 5633 5631 5630 5629 5628 5627 5626 5624 5623 5622 5620 5619 5618 5617 5615 5614 5612 5610
5596 5596 5595 5596 5598 5601 5602 5600 5598 5601 5611 5622 5626 5627 5625 5620 5613 5608 5608 5612 5616 5620 5625 5626 5622 5621 5621 5621 5622 5625 5626 5627 5628 5630 5634 5637 5639 5639 5639 5639 5640 5641 5641 5641 5641 5641 5640 5640 5640 5641 5641 5641 5640 5639 5638 5637 5637 5638 5637 5636 5634 5633 5632 5631 5630 5629 5627 5626 5625 5623 5622 5621 5619 5618 5617 5616 5615 5613 5612 5611 5610 5608 5607 5605 5603 5602
5589 5589 5588 5591 5594 5595 5595 5594 5592 5595 5605 5614 5616 5615 5613 5609 5604 5602 5603 5605 5605 5608 5613 5615 5614 5611 5609 5610 5612 5613 5615 5618 5619 5619 5621 5625 5628 5629 5628 5627 5628 5629 5630 5630 5629 5629 5628 5629 5630 5631 5630 5631 5630 5630 5629 5628 5628 5628 5628 5626 5625 5624 5623 5622 5621 5619 5618 5617 5616 5614 5613 5612 5610 5609 5608 5607 5606 5604 5603 5602 5601 5599 5597 5596 5594 5592
5579 5581 5582 5585 5588 5587 5586 5586 5587 5592 5599 5603 5604 5604 5603 5601 5599 5596 5594 5596 5598 5599 5601 5605 5607 5603 5599 5599 5601 5602 5605 5608 5610 5610 5611 5613 5615 5617 5617 5617 5616 5617 5618 5619 5618 5618 5618 5617 5619 5619 5619 5619 5619 5619 5618 5618 5618 5618 5617 5615 5614 5613 5613 5612 5610 5609 5608 5607 5606 5604 5603 5602 5601 5600 5599 5598 5596 5595 5594 5593 5591 5589 5588 5586 5585 5583
5571 5575 5576 5577 5578 5577 5577 5580 5584 5588 5591 5592 5594 5596 5595 5593 5592 5589 5586 5587 5590 5591 5592 5595 5597 5597 5594 5590 5590 5593 5596 5599 5600 5601 5602 5602 5604 5606 5605 5605 5606 5606 5607 5608 5608 5608 5607 5606 5607 5608 5608 5608 5608 5606 5606 5606 5606 5606 5605 5604 5603 5602 5601 5600 5599 5598 5597 5596 5595 5594 5593 5592 5591 5590 5589 5588 5587 5586 5584 5583 5581 5580 5578 5577 5575 5573
5565 5567 5566 5566 5568 5569 5569 5573 5578 5580 5581 5584 5587 5589 5587 5585 5584 5583 5580 5579 5580 5582 5585 5585 5587 5589 5588 5585 5582 5584 5587 5589 5591 5593 5593 5593 5595 5596 5595 5596 5596 5596 5596 5597 5598 5597 5596 5596 5596 5597 5597 5597 5596 5595 5595 5595 5595 5595 5594 5593 5592 5592 5590 5589 5588 5587 5586 5585 5584 5583 5583 5582 5581 5580 5579 5578 5577 5575 5574 5572 5571 5569 5568 5567 5565 5564
5556 5558 5557 5557 5559 5560 5561 5565 5571 5571 5571 5574 5576 5577 5578 5578 5578 5576 5573 5571 5571 5573 5576 5577 5576 5578 5580 5580 5578 5576 5578 5581 5581 5582 5584 5585 5585 5587 5587 5586 5586 5587 5587 5587 5588 5588 5587 5587 5587 5587 5587 5587 5587 5586 5585 5584 5584 5584 5583 5583 5582 5581 5580 5579 5577 5576 5575 5574 5574 5573 5572 5571 5570 5569 5568 5567 5566 5565 5563 5562 5561 5559 5558 5556 5555 5554
5546 5547 5548 5549 5550 5552 5553 5557 5563 5563 5561 5562 5563 5564 5567 5570 5570 5568 5564 5562 5563 5565 5566 5567 5566 5565 5568 5572 5572 5569 5570 5572 5573 5572 5574 5576 5576 5577 5578 5577 5577 5578 5577 5577 5578 5578 5578 5578 5578 5578 5578 5578 5577 5576 5575 5575 5574 5574 5573 5573 5572 5570 5569 5568 5567 5566 5565 5564 5563 5562 5561 5560 5559 5558 5556 5555 5554 5553 5552 5551 5550 5549 5547 5546 5545 5544
5538 5538 5539 5540 5541 5544 5546 5549 5553 5553 5549 5548 5550 5553 5557 5559 5559 5557 5555 5555 5555 5556 5555 5555 5555 5555 5557 5561 5563 5562 5561 5562 5563 5562 5563 5566 5568 5568 5568 5568 5568 5568 5568 5568 5568 5568 5568 5568 5568 5568 5568 5568 5567 5567 5566 5565 5564 5564 5563 5562 5561 5560 5559 5558 5557 5556 5555 5554 5553 5551 5550 5549 5547 5546 5545 5544 5543 5542 5541 5540 5539 5539 5538 5537 5537 5536
5530 5530 5533 5532 5530 5533 5538 5540 5540 5536 5535 5537 5541 5543 5545 5546 5546 5545 5545 5546 5545 5545 5544 5543 5544 5546 5547 5549 5551 5552 5551 5553 5553 5551 5551 5555 5558 5558 5558 5558 5558 5559 5559 5559 5559 5559 5558 5558 5558 5558 5558 5558 5558 5557 5557 5556 5555 5554 5554 5553 5552 5551 5549 5548 5547 5546 5545 5544 5542 5540 5539 5538 5537 5536 5535 5534 5533 5532 5531 5531 5530 5530 5529 5528 5528 5527
5522 5523 5525 5522 5519 5522 5528 5529 5526 5523 5523 5527 5532 5532 5533 5535 5535 5534 5534 5534 5533 5534 5533 5532 5532 5536 5538 5539 5539 5539 5539 5541 5542 5541 5541 5543 5546 5546 5547 5548 5548 5549 5549 5549 5549 5549 5549 5549 5549 5549 5549 5548 5548 5548 5548 5547 5546 5545 5545 5544 5543 5542 5540 5539 5538 5536 5535 5534 5532 5530 5529 5528 5527 5527 5526 5525 5525 5524 5523 5522 5522 5521 5521 5520 5519 5518